Location: Goettingen
(51.5300°N, 9.9433°E)
Time: 10:04:41
(UTC+01:00)

ISS - Pass Details

Date: 22 March 2023
Orbit: 414 x 423 km, 51.6° (Epoch: 20 March)

Event Time Altitude Azimuth Distance (km) Brightness Sun altitude
Rises 21:51:58 0° 281° (W) 2,358 0.9 -28.3°
Reaches altitude 10° 21:54:04 10° 279° (W) 1,493 -0.3 -28.5°
Enters shadow 21:54:32 13° 278° (W) 1,301 -0.7 -28.6°
